This is the latest recevied weather packets stored in our database for station/object DH5DY-6. If no packets are shown the sender has not sent any weather packets the latest 10 day(s).
| Time | Temp. | Humidity | Pressure | Rain* | Wind** | Luminosity | Snow |
|---|---|---|---|---|---|---|---|
| 1777346266 | 6.11° C | 71% | 1018.4 hPa | 0 mm | - | 0 W/m² | - |
| 1777345667 | 6.11° C | 73% | 1018.4 hPa | 0 mm | - | 0 W/m² | - |
| 1777345066 | 6.11° C | 72% | 1018.5 hPa | 0 mm | - | 0 W/m² | - |
| 1777344466 | 6.11° C | 74% | 1018.7 hPa | 0 mm | - | 0 W/m² | - |
| 1777343266 | 6.11° C | 73% | 1018.6 hPa | 0 mm | - | 0 W/m² | - |
| 1777342666 | 6.11° C | 73% | 1018.6 hPa | 0 mm | - | 0 W/m² | - |
| 1777341466 | 6.67° C | 72% | 1018.4 hPa | 0 mm | - | 0 W/m² | - |
| 1777340866 | 6.67° C | 69% | 1018.5 hPa | 0 mm | - | 0 W/m² | - |
| 1777339666 | 6.67° C | 71% | 1018.5 hPa | 0 mm | - | 0 W/m² | - |
| 1777339066 | 7.22° C | 70% | 1018.5 hPa | 0 mm | - | 0 W/m² | - |
| 1777337865 | 7.22° C | 68% | 1018.7 hPa | 0 mm | - | 0 W/m² | - |
| 1777337265 | 7.22° C | 68% | 1018.8 hPa | 0 mm | - | 0 W/m² | - |
| 1777336666 | 7.22° C | 69% | 1018.7 hPa | 0 mm | - | 0 W/m² | - |
| 1777336065 | 7.22° C | 69% | 1018.6 hPa | 0 mm | - | 0 W/m² | - |
| 1777335465 | 7.22° C | 69% | 1018.6 hPa | 0 mm | - | 0 W/m² | - |
| 1777334266 | 7.22° C | 67% | 1018.7 hPa | 0 mm | - | 0 W/m² | - |
| 1777333665 | 7.78° C | 67% | 1018.7 hPa | 0 mm | - | 0 W/m² | - |
| 1777333065 | 7.78° C | 66% | 1018.7 hPa | 0 mm | - | 0 W/m² | - |
| 1777332465 | 7.78° C | 64% | 1018.8 hPa | 0 mm | - | 0 W/m² | - |
| 1777331864 | 7.78° C | 65% | 1018.7 hPa | 0 mm | - | 0 W/m² | - |
| 1777330664 | 7.78° C | 64% | 1018.6 hPa | 0 mm | - | 0 W/m² | - |
| 1777330065 | 7.78° C | 64% | 1018.6 hPa | 0 mm | - | 0 W/m² | - |
| 1777328865 | 8.33° C | 62% | 1018.5 hPa | 0 mm | - | 0 W/m² | - |
| 1777328264 | 8.33° C | 62% | 1018.5 hPa | 0 mm | - | 0 W/m² | - |
| 1777327064 | 8.89° C | 60% | 1018.6 hPa | 0 mm | - | 0 W/m² | - |
* Rain latest hour (hover to see other rain measurements)
** Current wind speed in m/s (hover to see current wind gust speed)